Probability
0 0 0 0 0 0 0 0 0 0 0 0 0 0 0 0 0 0 0 0 0 0 0 0 0 0 0 0 0 0 0 0 0 0 1 2 3 3 3 3 2 1 0 0
0 0 0 0 0 0 0 0 0 0 0 0 0 0 0 0 0 0 0 0 0 0 0 0 0 0 0 0 0 0 0 0 0 0 1 2 3 3 3 3 3 2 1 0
0 0 0 0 0 0 0 0 0 0 0 0 0 0 0 0 0 0 0 0 0 0 0 0 0 0 0 0 0 0 0 0 0 0 0 1 2 3 3 3 3 3 1 1
0 0 0 0 0 0 0 0 0 0 0 0 0 0 0 0 0 0 0 0 0 0 0 0 0 0 0 0 0 0 0 0 0 0 0 0 1 2 3 3 3 3 3 2
0 0 0 0 0 0 0 0 0 0 0 0 0 0 0 0 0 0 0 0 0 0 0 0 0 0 0 0 0 0 0 0 0 0 0 0 0 1 1 2 2 2 2 2
0 0 0 0 0 0 0 0 0 0 0 0 0 0 0 0 0 0 0 0 0 0 0 0 0 0 0 0 0 0 0 0 0 0 0 0 0 0 0 1 1 1 1 1
0 0 0 0 0 0 0 0 0 0 0 0 0 0 0 0 0 0 0 0 0 0 0 0 0 0 0 0 0 0 0 0 0 0 0 0 0 0 0 0 0 0 0 0
0 0 0 0 0 0 0 0 0 0 0 0 0 0 0 0 0 0 0 0 0 0 0 0 0 0 0 0 0 0 0 0 0 0 0 0 0 0 0 0 0 0 0 0
0 0 0 0 0 0 0 0 0 0 0 0 0 0 0 0 0 0 0 0 0 0 0 0 0 0 0 0 0 0 0 0 0 0 0 0 0 0 0 0 0 0 0 0
0 0 0 0 0 0 0 0 0 0 0 0 0 0 0 0 0 0 0 0 0 0 0 0 0 0 0 0 0 0 0 0 0 0 0 0 0 0 0 0 0 0 0 0
0 0 0 0 0 0 0 0 0 0 0 0 0 0 0 0 0 0 0 0 0 0 0 0 0 0 0 0 0 0 0 0 0 0 0 0 0 0 0 0 0 0 0 0
0 0 0 0 0 0 0 0 0 0 0 0 0 0 0 0 0 0 0 0 0 0 0 0 0 0 0 0 0 0 0 0 0 0 0 0 0 0 0 0 0 0 0 0
0 0 0 0 0 0 0 0 0 0 0 0 0 0 0 0 0 0 0 0 0 0 0 0 0 0 0 0 0 0 0 0 0 0 0 0 0 0 0 0 0 0 0 0
0 0 0 0 0 0 0 0 0 0 0 0 0 0 0 0 0 0 0 0 0 0 0 0 0 0 0 0 0 0 0 0 0 0 0 0 0 0 0 0 0 0 0 0
0 0 0 0 0 0 0 0 0 0 0 0 0 0 0 0 0 0 0 0 0 0 0 0 0 0 0 0 0 0 0 0 0 0 0 0 0 0 0 0 0 0 0 0
0 0 0 0 0 0 0 0 0 0 0 0 0 0 0 0 0 0 0 0 0 0 0 0 0 0 0 0 0 0 0 0 0 0 0 0 0 0 0 0 0 0 0 0
0 0 0 0 0 0 0 0 0 0 0 0 0 0 0 0 0 0 0 0 0 0 0 0 0 0 0 0 0 0 0 0 0 0 0 0 0 0 0 0 0 0 0 0
0 0 0 0 0 0 0 0 0 0 0 0 0 0 0 0 0 0 0 0 0 0 0 0 0 0 0 0 0 0 0 0 0 0 0 0 0 0 0 0 0 0 0 0
0 0 0 0 0 0 0 0 0 0 0 0 0 0 0 0 0 0 0 0 0 0 0 0 0 0 0 0 0 0 0 0 0 0 0 0 0 0 0 0 0 0 0 0
0 0 0 0 0 0 0 0 0 0 0 0 0 0 0 0 0 0 0 0 0 0 0 0 0 0 0 0 0 0 0 0 0 0 0 0 0 0 0 0 0 0 0 0
0 0 0 0 0 0 0 0 0 0 0 0 0 0 0 0 0 0 0 0 0 0 0 0 0 0 0 0 0 0 0 0 0 0 0 0 0 0 0 0 0 0 0 0
0 0 0 0 0 0 0 0 0 0 0 0 0 0 0 0 0 0 0 0 0 0 0 0 0 0 0 0 0 0 0 0 0 0 0 0 0 0 0 0 0 0 0 0
0 0 0 0 0 0 0 0 0 0 0 0 0 0 0 0 0 0 0 0 0 0 0 0 0 0 0 0 0 0 0 0 0 0 0 0 0 0 0 0 0 0 0 0
0 0 0 0 0 0 0 0 0 0 0 0 0 0 0 0 0 0 0 0 0 0 0 0 0 0 0 0 0 0 0 0 0 0 0 0 0 0 0 0 0 0 0 0
0 0 0 0 0 0 0 0 0 0 0 0 0 0 0 0 0 0 0 0 0 0 0 0 0 0 0 0 0 0 0 0 0 0 0 0 0 0 0 0 0 0 0 0
0 0 0 0 0 0 0 0 0 0 0 0 0 0 0 0 0 0 0 0 0 0 0 0 0 0 0 0 0 0 0 0 0 0 0 0 0 0 0 0 0 0 0 0
0 0 0 0 0 0 0 0 0 0 0 0 0 0 0 0 0 0 0 0 0 0 0 0 0 0 0 0 0 0 0 0 0 0 0 0 0 0 0 0 0 0 0 0
Wind_Speed
4 3 2 4 6 7 9 9 9 9 9 9 6 4 3 2 1 1 1 2 2 2 2 2 2 2 2 2 2 1 1 1 2 2 2 2 1 1 1 1 2 2 1 2
3 2 2 5 7 9 9 7 8 7 10 7 4 1 2 2 2 2 2 2 2 2 2 2 3 2 2 3 2 2 2 2 2 2 2 2 2 2 1 1 2 1 2 2
3 2 2 8 9 10 7 6 7 10 10 3 2 3 4 4 3 3 3 3 3 3 3 3 3 3 3 3 2 2 2 2 2 2 2 2 2 1 2 2 2 2 2 2
1 1 7 7 2 5 6 5 6 5 4 3 3 3 3 3 3 3 3 3 3 3 3 3 2 3 2 2 2 2 2 2 2 2 2 2 2 2 3 2 2 2 3 3
2 3 8 6 2 4 5 6 5 6 5 3 1 2 3 2 3 3 3 3 3 3 3 3 3 2 2 2 2 2 2 2 2 2 3 3 3 3 2 2 2 2 2 3
3 4 7 5 2 1 3 4 3 4 4 3 2 1 4 2 1 2 2 2 2 2 2 2 3 2 1 2 2 3 3 3 3 2 2 3 3 3 2 2 2 2 2 2
5 5 8 5 1 3 4 6 2 3 4 4 4 5 3 1 1 1 2 2 1 1 1 3 3 2 2 3 4 4 3 2 2 2 2 3 2 2 1 1 1 1 2 2
5 5 9 2 4 5 5 1 0 1 2 3 4 2 1 1 2 2 2 2 1 1 2 3 2 1 3 4 4 3 2 2 2 2 2 2 1 1 1 1 1 1 2 2
8 7 3 3 4 3 1 1 2 2 2 2 2 2 2 2 2 2 2 2 2 1 3 3 3 2 3 5 3 2 2 2 2 2 2 2 2 2 1 1 1 2 1 2
4 6 3 3 2 2 2 2 2 2 2 2 3 3 3 2 2 2 2 2 2 2 3 4 4 3 3 4 3 2 2 2 2 2 2 2 2 2 2 2 2 2 2 2
5 5 3 3 4 4 2 2 1 1 2 3 3 3 3 3 3 3 3 2 2 3 3 4 4 4 4 3 2 2 2 2 2 2 2 2 2 2 3 3 4 3 3 3
7 5 4 4 3 2 2 3 3 2 2 2 3 4 4 4 3 3 3 3 3 3 4 4 4 4 4 3 2 2 2 2 2 2 2 2 2 2 3 4 5 5 5 4
4 2 3 4 2 1 2 3 3 3 3 4 3 4 4 3 3 3 3 3 4 4 4 4 4 4 4 3 2 3 3 3 2 2 2 2 2 2 2 3 4 4 4 4
2 1 2 2 3 2 2 2 2 2 3 3 3 2 3 3 3 3 4 4 4 4 4 4 4 5 4 3 3 3 3 3 3 2 2 2 2 2 2 2 2 3 3 5
3 3 4 3 2 2 2 1 2 3 3 3 2 2 3 3 4 5 4 4 3 4 4 4 4 5 4 3 3 3 3 2 2 2 2 2 2 2 2 2 2 2 2 3
3 2 2 3 4 3 2 2 3 4 4 4 3 4 4 4 4 4 4 3 3 5 5 4 5 5 4 3 3 2 3 4 3 2 2 2 2 2 2 2 2 2 2 2
2 3 3 4 4 4 4 5 5 5 4 4 5 4 3 3 4 4 4 4 4 5 5 5 5 4 3 3 3 2 2 3 4 3 2 3 3 3 3 3 2 2 3 3
5 5 5 5 5 5 5 4 4 4 5 5 4 3 4 4 5 5 5 4 3 4 4 4 4 4 3 3 3 2 2 2 2 3 3 3 3 3 3 3 3 3 2 3
3 4 4 4 4 4 4 4 4 4 4 3 3 4 5 5 5 5 4 3 4 5 5 4 6 4 4 4 3 2 2 3 3 3 3 4 3 2 3 3 3 3 3 2
2 2 2 2 2 3 4 4 3 3 3 3 4 4 5 5 4 4 4 4 5 5 4 4 4 3 4 4 4 2 3 3 3 3 3 3 3 3 3 3 3 3 3 2
2 2 2 2 3 3 3 3 3 4 4 3 4 5 5 5 4 3 4 5 4 4 4 5 3 3 3 4 4 2 2 3 3 3 3 3 3 3 3 3 3 3 3 2
2 2 2 2 3 3 3 3 3 4 4 4 4 4 4 5 4 4 5 5 4 6 4 2 3 5 5 4 2 2 2 3 3 3 3 3 3 3 3 3 3 3 3 3
2 2 2 3 3 3 4 3 3 4 4 4 4 4 5 5 4 4 5 3 3 6 4 3 5 7 6 2 2 2 3 3 3 3 3 3 3 3 3 3 3 3 3 3
2 2 2 2 2 3 4 4 4 3 4 4 4 4 4 4 4 4 4 6 7 6 4 5 7 6 5 2 2 2 3 3 3 3 3 3 3 3 3 3 3 3 3 3
2 2 2 2 2 3 4 4 3 3 3 3 4 4 3 3 4 4 3 4 6 6 3 5 7 6 3 2 2 3 3 3 3 3 3 3 3 3 3 2 3 3 2 2
2 2 3 3 3 3 3 2 3 3 3 4 4 3 3 2 3 3 3 3 4 5 4 3 3 4 2 2 3 3 3 3 3 3 3 3 3 3 2 2 3 2 2 2
2 2 2 2 2 2 2 2 3 4 3 3 4 3 3 3 3 3 3 3 3 3 3 2 2 2 2 2 2 2 2 2 2 2 2 2 2 3 3 3 2 2 2 2
Wind_Direction
253 262 209 219 218 201 204 206 212 235 238 256 255 247 257 258 279 297 315 324 323 317 309 309 314 309 298 297 301 295 279 274 270 275 268 260 262 261 260 260 259 254 259 271
272 259 235 253 239 221 226 225 233 250 262 254 260 250 266 252 241 251 276 295 309 314 311 301 296 295 298 297 299 297 281 275 281 286 282 263 257 252 252 261 266 265 259 256
251 283 326 264 228 208 212 211 198 226 245 243 248 241 240 236 238 243 263 283 288 291 285 282 279 270 270 276 290 293 282 280 285 278 279 270 260 253 249 251 251 265 268 261
208 52 242 249 216 197 208 231 221 236 242 226 232 260 254 222 218 245 258 266 275 282 291 291 283 279 274 275 271 272 276 282 289 284 280 279 265 253 253 253 246 253 259 260
165 233 271 289 244 183 195 255 229 228 247 251 300 338 291 240 214 231 244 259 263 266 271 284 290 282 280 283 279 272 271 275 279 276 274 273 261 254 251 245 255 257 263 261
164 204 242 254 245 212 136 273 253 208 225 214 121 284 270 275 262 264 269 271 280 294 310 307 305 301 285 281 276 271 272 272 275 270 264 264 260 260 253 240 255 278 290 284
196 225 259 262 249 119 163 251 269 200 210 193 205 226 255 285 290 272 279 284 285 294 297 293 300 302 285 280 273 272 274 274 276 272 264 262 265 261 241 241 275 291 294 301
176 209 251 220 135 178 222 282 316 205 209 214 231 251 264 267 263 280 298 302 302 301 300 301 303 294 287 284 283 284 278 273 272 271 268 270 256 265 246 205 234 271 283 298
196 214 238 171 187 217 203 221 251 229 236 210 230 247 259 261 258 266 275 289 293 286 300 307 306 289 282 290 292 286 289 283 279 281 278 262 238 241 240 217 221 248 251 273
247 264 253 235 248 258 233 236 255 244 224 194 224 244 253 253 257 262 271 277 283 289 295 301 305 301 286 294 296 276 275 283 278 272 280 273 256 240 235 229 227 237 244 257
247 269 291 260 236 242 254 273 280 276 231 214 214 243 240 246 251 253 263 268 257 259 273 285 296 296 294 295 292 278 275 277 282 274 271 278 271 249 242 236 233 237 235 234
225 228 212 250 252 228 233 255 256 258 268 246 222 241 246 249 252 257 263 266 270 273 275 281 289 291 292 288 271 260 274 278 277 278 272 267 276 298 285 272 274 272 272 266
223 230 230 264 277 236 232 254 264 258 254 263 257 240 242 250 255 258 264 262 263 268 274 278 282 286 289 286 270 253 258 268 273 272 267 266 264 267 290 308 305 301 292 285
218 203 265 254 255 272 260 266 279 280 265 253 255 252 246 253 260 260 260 262 265 269 274 274 276 279 285 283 270 261 260 262 267 264 260 259 257 259 259 266 289 298 296 291
238 225 229 255 278 288 283 284 299 293 287 283 265 254 248 250 259 265 266 267 270 271 272 273 275 280 286 280 269 262 259 258 258 261 257 253 255 254 251 247 253 270 291 291
242 256 248 252 260 269 274 263 261 270 273 275 274 266 258 254 261 268 266 253 254 264 269 269 270 275 279 272 267 263 256 260 263 258 252 248 249 249 250 247 251 259 266 270
194 242 244 254 258 263 256 249 248 258 266 266 264 266 264 262 267 269 269 260 255 261 264 261 267 276 276 266 256 257 258 259 262 262 250 244 242 242 245 245 247 252 257 264
216 226 228 233 243 255 263 261 255 256 259 262 265 262 255 251 257 266 271 273 274 276 269 263 267 278 275 265 254 251 251 253 248 245 246 244 246 243 241 242 245 250 261 264
236 237 245 248 249 252 259 262 261 260 263 261 256 255 254 256 257 263 268 267 266 272 273 269 278 280 274 266 267 248 243 248 252 248 244 253 257 244 242 244 245 246 253 257
251 251 256 267 270 262 264 267 270 272 268 255 254 260 265 265 263 265 265 262 256 257 264 273 272 266 268 265 267 254 244 242 243 245 244 242 245 247 247 249 249 249 250 250
256 268 275 278 283 282 271 270 270 272 276 262 252 257 263 270 266 259 262 273 274 267 271 280 280 273 272 271 267 255 247 246 244 242 242 243 246 248 247 249 251 251 248 249
260 269 277 283 288 291 290 279 270 270 273 270 264 262 264 268 268 265 255 257 271 283 287 270 270 272 276 277 262 252 250 249 247 245 244 244 244 247 248 249 250 250 248 246
264 268 276 281 282 288 298 289 273 265 263 264 264 261 258 260 260 262 275 272 269 281 286 268 275 279 281 273 257 255 253 249 248 248 245 244 244 245 249 249 251 250 246 243
268 272 279 288 292 289 288 289 285 276 268 269 266 262 259 265 271 258 262 283 288 291 286 279 284 285 287 272 256 255 252 250 250 250 249 249 248 247 248 247 250 249 244 241
260 268 274 277 277 276 278 289 295 291 285 282 279 273 261 251 259 276 276 274 284 295 292 289 293 292 287 266 256 255 252 248 247 245 243 246 249 248 247 245 245 248 246 241
259 262 264 262 263 271 278 283 285 288 289 291 292 287 284 282 273 274 277 277 278 289 293 288 287 292 283 267 260 255 251 257 260 254 248 247 248 249 249 249 250 249 247 243
281 275 277 285 280 270 271 273 277 282 282 281 289 295 298 300 298 292 286 284 286 289 290 289 286 284 281 274 269 264 259 255 251 248 245 244 245 245 246 244 245 248 250 245